Regional Weather Roundup
Issued by NWS

Home | Current Version | Previous Version | Text Only | Print | Product List | Glossary Off
Versions: 1 2 3 4 5 6 7 8 9 10 11 12 13 14 15 16 17 18 19 20 21 22 23 24 25 26 27 28 29 30 31 32 33 34 35 36 37 38 39 40 41 42 43 44 45 46 47 48 49 50

000
ASUS43 KMPX 021110
RWRMN
WEATHER ROUNDUP FOR MINNESOTA
NATIONAL WEATHER SERVICE TWIN CITIES/CHANHASSEN MN
500 AM CST FRI DEC 02 2016


NOTE: "FAIR" INDICATES FEW OR NO CLOUDS BELOW 12,000 FEET WITH NO
SIGNIFICANT WEATHER AND/OR OBSTRUCTIONS TO VISIBILITY. N/A MEANS
CURRENT SKY AND/OR WEATHER CONDITIONS ARE NOT AVAILABLE.

MNZ060>063-068>070-021200-
   Twin Cities Metro

CITY           SKY/WX    TMP DP  RH WIND       PRES   REMARKS
TWIN CITIES    CLOUDY    31  21  66 NW10      30.13R WCI  22
ST PAUL        CLOUDY    31  23  72 NW9       30.14R WCI  23
CRYSTAL        CLOUDY    32  20  61 NW5       30.12R WCI  27
BLAINE         CLOUDY    32  25  74 NW7       30.12R WCI  26
LAKEVILLE      CLOUDY    28  23  80 N6        30.13R WCI  22
EDEN PRAIRIE   CLOUDY    32  23  69 NW7       30.12R WCI  26
SOUTH ST PAUL  CLOUDY    32  22  67 NW8       30.13R WCI  25
LAKE ELMO      CLOUDY    32  25  74 N6        30.12R WCI  26
$$
MNZ001>005-007-008-013>017-022>024-027-028-021200-
   Northwest Minnesota

CITY           SKY/WX    TMP DP  RH WIND       PRES   REMARKS
BEMIDJI        CLOUDY    22  19  89 NW9       30.13R WCI  12
HALLOCK        CLOUDY    28  25  86 N7        30.18S WCI  21
ROSEAU         CLOUDY    25  19  80 NW7       30.16R WCI  17
WARROAD        CLOUDY    21  18  86 NW5       30.16R WCI  15
CROOKSTON      CLOUDY    27  23  86 N9        30.19R WCI  17
FOSSTON        CLOUDY    23  19  86 NW7       30.16R WCI  15
DETROIT LAKES  CLOUDY    27  23  86 NW8       30.15R WCI  18
MOORHEAD       CLOUDY    28  21  74 NW9       30.19R WCI  20
PARK RAPIDS    CLOUDY    24  17  74 NW10      30.12R WCI  14
$$
MNZ006-009>011-018-025>026-021200-
   North Central Minnesota

CITY           SKY/WX    TMP DP  RH WIND       PRES   REMARKS
BAUDETTE       CLOUDY    23  20  88 W12       30.13R WCI  12
FLAG ISLAND    CLOUDY    19  19 100 W10       30.14R WCI   8
INTL FALLS     CLOUDY    26  21  81 N5        30.11R WCI  20
WASKISH        CLOUDY    23  21  93 NW7       30.14R WCI  15
BIG FORK       CLOUDY    27  21  80 NW5       30.10R WCI  21
LONGVILLE      CLOUDY    27  21  80 W3        30.11R
GRAND RAPIDS   CLOUDY    26  22  84 NW12      30.12R WCI  16
CRANE LAKE     CLOUDY    21  21 100 N5        30.11S WCI  15
ORR            CLOUDY    25  19  80 NW7       30.07R WCI  17
COOK           CLOUDY    25  21  86 N5        30.09R WCI  19
$$
MNZ012-019>021-037-021200-
   Northeast Minnesota

CITY           SKY/WX    TMP DP  RH WIND       PRES   REMARKS
DULUTH         CLOUDY    27  23  85 NW12      30.05R WCI  17
ELY            CLOUDY    21  21 100 N3        30.07R
HIBBING        CLOUDY    24  20  84 N7        30.08R WCI  16
EVELETH        CLOUDY    26  21  82 N6        30.09R WCI  20
DULUTH HARBOR  CLOUDY    32  25  74 CALM      30.11R
TWO HARBORS    PTCLDY    30  23  74 CALM      30.05R
SILVER BAY     CLOUDY    27  23  86 NW5       30.04R WCI  21
GRAND MARAIS     N/A     30  22  72 CALM      30.04R
G MARAIS ARPRT CLOUDY    21  18  86 NW12      29.99R WCI   9
$$
MNZ029>031-032-039>041-046>048-054>057-064-021200-
   West Central Minnesota

CITY           SKY/WX    TMP DP  RH WIND       PRES   REMARKS
FERGUS FALLS   CLOUDY    27  21  80 N8        30.20R WCI  18
WHEATON        CLOUDY   N/A N/A N/A NW5       30.19R
MORRIS         CLOUDY    28  23  80 NW9       30.15R WCI  20
ALEXANDRIA     CLOUDY    26  21  81 N8        30.14R WCI  18
ELBOW LAKE     CLOUDY    26  21  83 W10       30.16R WCI  16
WADENA         CLOUDY    25  19  80 N10       30.13R WCI  15
GLENWOOD       CLOUDY    27  21  80 W8        30.14R WCI  18
APPLETON       CLOUDY    30  23  74 NW9       30.17R WCI  22
BENSON         CLOUDY    28  21  74 N9        30.16R WCI  20
ORTONVILLE     MIX PCPN  27  25  93 CALM      30.17R
MADISON        CLOUDY    30  27  86 N12       30.17R WCI  21
WILLMAR        CLOUDY    30  25  80 NW10      30.16R WCI  21
$$
MNZ033>034-036-042>043-049>051-058-059-021200-
   Central Minnesota

CITY           SKY/WX    TMP DP  RH WIND       PRES   REMARKS
ST CLOUD       CLOUDY    29  23  78 NW8       30.13R WCI  21
PAYNESVILLE    CLOUDY    29  22  75 NW8       30.14R WCI  21
AITKIN         CLOUDY    28  21  74 NW5       30.10R WCI  23
PINE RIVER     CLOUDY    25  19  80 W6        30.15R WCI  18
BRAINERD       CLOUDY    26  21  81 NW8       30.12R WCI  18
STAPLES        CLOUDY    25  19  80 NW7       30.13R WCI  17
LONG PRAIRIE   CLOUDY    27  21  80 NW7       30.13R WCI  19
LITTLE FALLS   CLOUDY    28  21  74 NW5       30.13R WCI  23
LITCHFIELD     CLOUDY    30  25  80 NW7       30.14R WCI  23
BUFFALO        CLOUDY    30  21  69 NW6       30.14R WCI  24
MAPLE LAKE     CLOUDY    31  25  78 NW7       30.14R WCI  24
$$
MNZ037-044-045-052-053-021200-
   East Central Minnesota

CITY           SKY/WX    TMP DP  RH WIND       PRES   REMARKS
PRINCETON      CLOUDY    30  25  80 W5        30.12S WCI  25
MORA           CLOUDY    30  23  74 NW8       30.13R WCI  23
CAMBRIDGE      CLOUDY    32  21  64 CALM      30.10R
RUSH CITY      CLOUDY    30  23  74 CALM      30.11S
MOOSE LAKE     CLOUDY    30  23  74 NW5       30.08R WCI  25
HINCKLEY       CLOUDY    30  25  80 NW5       30.11R WCI  25
CLOQUET        CLOUDY    27  21  80 NW12      30.08R WCI  16
MCGREGOR       CLOUDY    28  23  80 N10       30.10R WCI  19
$$
MNZ071>073-080-081-089-090-097-098-021200-
   Southwest Minnesota

CITY           SKY/WX    TMP DP  RH WIND       PRES   REMARKS
MONTEVIDEO     CLOUDY    28  27  93 N6        30.18R WCI  22
GRANITE FALLS  CLOUDY    32  26  78 NW10      30.17S WCI  23
CANBY          CLOUDY    30  26  85 CALM      30.18R
MARSHALL       CLOUDY    29  25  85 NW12      30.16R WCI  19
REDWOOD FALLS  CLOUDY    31  22  69 N6        30.15R WCI  25
OLIVIA         CLOUDY    30  23  74 N13       30.15R WCI  20
PIPESTONE      CLOUDY    28  27  93 N6        30.13R WCI  22
WINDOM         CLOUDY    30  27  86 NW10      30.14R WCI  21
WORTHINGTON    CLOUDY    30  27  88 NW10      30.14R WCI  21
JACKSON        CLOUDY    30  27  86 NW9       30.14R WCI  22
TRACY          CLOUDY    31  28  88 NW10      30.15R WCI  22
SLAYTON        CLOUDY    28  25  91 NW6       30.14R WCI  21
$$
MNZ065>067-074>077-082>085-091>093-021200-
   South Central Minnesota

CITY           SKY/WX    TMP DP  RH WIND       PRES   REMARKS
MANKATO        CLOUDY    31  24  75 NW8       30.14R WCI  23
NEW ULM        CLOUDY    30  25  80 NW9       30.14R WCI  22
ST JAMES       CLOUDY    30  28  93 NW9       30.16R WCI  22
FAIRMONT       CLOUDY    31  26  82 NW10      30.14R WCI  22
GLENCOE        CLOUDY    32  26  80 N9        30.13R WCI  24
FARIBAULT      CLOUDY    30  25  80 NW8       30.13R WCI  23
OWATONNA       CLOUDY    32  25  74 W9        30.12R WCI  24
WASECA         CLOUDY    32  27  80 W9        30.13R WCI  24
ALBERT LEA     CLOUDY    36  30  80 NW6       30.11S
$$
MNZ078>079-086>088-094>096-021200-
   Southeast Minnesota

CITY           SKY/WX    TMP DP  RH WIND       PRES   REMARKS
ROCHESTER      CLOUDY    31  26  82 NW6       30.09R WCI  25
RED WING       CLOUDY    32  21  64 NW5       30.11R WCI  27
STANTON        CLOUDY    32  24  73 N7        30.12R WCI  26
DODGE CENTER   CLOUDY    30  25  80 NW8       30.10R WCI  23
WINONA         CLOUDY    34  27  75 NW10      30.12R WCI  26
AUSTIN         CLOUDY    32  27  80 NW13      30.10R WCI  22
PRESTON        CLOUDY    31  25  76 N6        30.09R WCI  26
$$
ABBREVIATIONS USED IN REMARKS
   TC - TEMPERATURES IN CELSIUS
  WCI - WIND CHILL INDEX
   HX - HEAT INDEX
  VSB - VISIBILITY
$$




USA.gov is the U.S. government's official web portal to all federal, state and local government web resources and services.